Location: Hains Lake
(37.8540°N, 99.8578°W)
Time: 04:13:30
(UTC+00:00)

Tiros 1 despin weight - Pass Details

Date: 25 April 2021
Orbit: 593 x 642 km, 48.2° (Epoch: 07 May)

Event Time Altitude Azimuth Distance (km) Brightness Sun altitude
Rises 13:13:52 0° 300° (WNW) 2,906 ? 15.3°
Reaches altitude 10° 13:16:36 10° 314° (NW) 1,989 ? 15.8°
Maximum altitude 13:20:16 23° 8° (N) 1,305 ? 16.6°
Drops below altitude 10° 13:23:55 10° 62° (ENE) 1,962 ? 17.3°
Sets 13:26:35 0° 77° (ENE) 2,855 ? 17.8°
